Weather History for KFDR - May, 2013

Change the Weather History Date:

Monday, May 27, 2013

  Actual Average (KLTS) Record (KLTS)
Temperature  
Mean Temperature 82 °F -  
Max Temperature 96 °F 86 °F 104 °F (2011)
Min Temperature 72 °F 63 °F 58 °F (2015)
Cooling Degree Days 18    
Growing Degree Days 32 (Base 50)    
Moisture  
Dew Point 65 °F    
Average Humidity 57    
Maximum Humidity 78    
Minimum Humidity 36    
Precipitation  
Precipitation 0.00 in - - ()
Sea Level Pressure  
Sea Level Pressure 29.72 in    
Wind  
Wind Speed 18 mph (South)    
Max Wind Speed 28 mph    
Max Gust Speed 40 mph    
Visibility 10 miles    
Events      
Averages and records for this station are not official NWS values.
T = Trace of Precipitation, MM = Missing Value Source: NWS Daily Summary

Daily Weather History Graph

Daily Weather History Graph

Search for Another Location

Airport or City:

Trip Planner

Search our weather history database for the weather conditions in past years. The results will help you decide how hot, cold, wet, or windy it might be!

Date:

Astronomy

May. 27, 2013 Rise Set
Actual Time 6:26 AM CDT 8:40 PM CDT
Civil Twilight 5:57 AM CDT 9:08 PM CDT
Nautical Twilight 5:23 AM CDT 9:43 PM CDT
Astronomical Twilight 4:45 AM CDT 10:21 PM CDT
Moon 11:23 PM CDT (5/27) 9:03 AM CDT (5/27)
Length of Visible Light 15h 10m
Length of Day
14h 13m
Waning Gibbous, 91% of the Moon is Illuminated
May 27
Waning Gibbous
May 31
Last Quarter
Jun 8
New
Jun 16
First Quarter
Jun 23
Full

Hourly Weather History & Observations

Time (CDT) Temp. Heat Index Dew Point Humidity Pressure Visibility Wind Dir Wind Speed Gust Speed Precip Events Conditions
12:53 AM 79.0 °F - 64.9 °F 62% 29.80 in 10.0 mi SSE 18.4 mph - N/A   Clear
1:53 AM 78.1 °F - 66.0 °F 66% 29.78 in 10.0 mi South 18.4 mph 27.6 mph N/A   Clear
2:53 AM 75.9 °F - 66.9 °F 74% 29.78 in 10.0 mi South 17.3 mph 25.3 mph N/A   Clear
3:53 AM 75.0 °F - 66.0 °F 73% 29.77 in 10.0 mi South 16.1 mph 24.2 mph N/A   Clear
4:53 AM 73.9 °F - 66.0 °F 76% 29.78 in 10.0 mi South 12.7 mph - N/A   Clear
5:53 AM 72.0 °F - 64.9 °F 78% 29.78 in 10.0 mi South 10.4 mph - N/A   Clear
6:53 AM 72.0 °F - 64.9 °F 78% 29.78 in 10.0 mi South 11.5 mph - N/A   Clear
7:30 AM 73.4 °F - 64.4 °F 73% 29.84 in 10.0 mi South 13.8 mph - N/A   Mostly Cloudy
7:53 AM 73.9 °F - 64.9 °F 73% 29.79 in 10.0 mi South 15.0 mph - N/A   Overcast
8:53 AM 77.0 °F - 64.9 °F 66% 29.80 in 10.0 mi South 16.1 mph 23.0 mph N/A   Overcast
9:53 AM 80.1 °F 82.1 °F 66.0 °F 62% 29.78 in 10.0 mi SSW 21.9 mph 27.6 mph N/A   Overcast
10:41 AM 82.4 °F 84.6 °F 66.2 °F 58% 29.82 in 10.0 mi SSW 21.9 mph 29.9 mph N/A   Mostly Cloudy
10:53 AM 84.0 °F 86.3 °F 66.0 °F 55% 29.76 in 10.0 mi South 18.4 mph 29.9 mph N/A   Mostly Cloudy
11:53 AM 86.0 °F 87.6 °F 64.9 °F 49% 29.75 in 10.0 mi South 18.4 mph 27.6 mph N/A   Partly Cloudy
12:53 PM 90.0 °F 91.7 °F 64.9 °F 43% 29.73 in 10.0 mi South 21.9 mph 29.9 mph N/A   Clear
1:53 PM 93.0 °F 94.6 °F 64.0 °F 38% 29.69 in 10.0 mi South 25.3 mph 35.7 mph N/A   Clear
2:53 PM 93.9 °F 95.2 °F 63.0 °F 36% 29.67 in 10.0 mi South 17.3 mph 38.0 mph N/A   Clear
3:53 PM 93.9 °F 95.2 °F 63.0 °F 36% 29.65 in 10.0 mi SSE 24.2 mph 33.4 mph N/A   Clear
4:53 PM 93.9 °F 95.2 °F 63.0 °F 36% 29.63 in 10.0 mi South 23.0 mph 33.4 mph N/A   Clear
5:53 PM 91.0 °F 91.9 °F 63.0 °F 39% 29.60 in 10.0 mi SSE 24.2 mph 34.5 mph N/A   Clear
6:53 PM 87.1 °F 88.3 °F 64.0 °F 46% 29.63 in 10.0 mi South 21.9 mph 29.9 mph N/A   Clear
7:53 PM 84.9 °F 86.6 °F 64.9 °F 51% 29.67 in 10.0 mi South 16.1 mph 23.0 mph N/A   Clear
8:53 PM 82.9 °F 85.0 °F 66.0 °F 56% 29.65 in 10.0 mi South 20.7 mph 29.9 mph 0.00 in   Clear
9:53 PM 82.0 °F 83.8 °F 64.9 °F 56% 29.62 in 10.0 mi SE 17.3 mph 33.4 mph N/A   Clear
10:53 PM 82.0 °F 83.8 °F 64.9 °F 56% 29.62 in 10.0 mi South 27.6 mph 40.3 mph N/A   Clear
11:53 PM 81.0 °F 82.7 °F 64.9 °F 58% 29.65 in 10.0 mi South 21.9 mph 28.8 mph N/A   Clear